Time,TemperatureF,DewpointF,PressureIn,WindDirection,WindDirectionDegrees,WindSpeedMPH,WindSpeedGustMPH,Humidity,HourlyPrecipIn,Conditions,Clouds,dailyrainin,SoftwareType,DateUTC
2013-02-08 00:00:00,40.1,40.1,29.87,SW,219,0.0,0.0,100,-0.16,,,0.00,Weather View 32 v70,2013-02-08 05:00:00,
2013-02-08 00:05:00,39.9,39.9,29.87,SW,219,0.0,0.0,100,-0.16,,,0.00,Weather View 32 v70,2013-02-08 05:05:00,
2013-02-08 00:11:00,39.8,39.8,29.86,SW,219,0.0,0.0,100,-0.16,,,0.00,Weather View 32 v70,2013-02-08 05:11:00,
2013-02-08 00:16:00,39.8,39.8,29.86,SW,219,0.0,0.0,100,-0.16,,,0.00,Weather View 32 v70,2013-02-08 05:16:00,
2013-02-08 00:21:00,39.8,39.8,29.87,SW,219,0.0,0.0,100,-0.16,,,0.00,Weather View 32 v70,2013-02-08 05:21:00,
2013-02-08 00:26:00,39.8,39.8,29.86,SW,219,0.0,0.0,100,-0.16,,,0.00,Weather View 32 v70,2013-02-08 05:26:00,
2013-02-08 00:31:00,39.8,39.8,29.87,SW,218,0.0,0.0,100,-0.16,,,0.00,Weather View 32 v70,2013-02-08 05:31:00,
2013-02-08 00:36:00,39.8,39.8,29.86,SW,219,0.0,0.0,100,-0.16,,,0.00,Weather View 32 v70,2013-02-08 05:36:00,
2013-02-08 00:41:00,39.9,39.9,29.86,SW,219,0.0,0.0,100,-0.16,,,0.00,Weather View 32 v70,2013-02-08 05:41:00,
2013-02-08 00:46:00,40.1,40.1,29.86,SW,219,0.0,0.0,100,-0.16,,,0.00,Weather View 32 v70,2013-02-08 05:46:00,
2013-02-08 00:51:00,40.1,40.1,29.85,SW,219,0.0,0.0,100,-0.16,,,0.00,Weather View 32 v70,2013-02-08 05:51:00,
2013-02-08 00:56:00,40.2,40.2,29.85,SW,219,0.0,0.0,100,-0.16,,,0.00,Weather View 32 v70,2013-02-08 05:56:00,
2013-02-08 01:01:00,40.1,40.1,29.85,SW,219,0.0,0.0,100,0.00,,,0.00,Weather View 32 v70,2013-02-08 06:01:00,
2013-02-08 01:06:00,40.1,40.1,29.85,SW,219,0.0,0.0,100,0.00,,,0.00,Weather View 32 v70,2013-02-08 06:06:00,
2013-02-08 01:11:00,40.1,40.1,29.85,SW,219,0.0,0.0,100,0.00,,,0.00,Weather View 32 v70,2013-02-08 06:11:00,
2013-02-08 01:16:00,40.1,40.1,29.85,SW,219,0.0,0.0,100,0.00,,,0.00,Weather View 32 v70,2013-02-08 06:16:00,
2013-02-08 01:21:00,40.1,40.1,29.85,SW,219,0.0,0.0,100,0.00,,,0.00,Weather View 32 v70,2013-02-08 06:21:00,
2013-02-08 01:26:00,40.1,40.1,29.85,SW,219,0.0,0.0,100,0.00,,,0.00,Weather View 32 v70,2013-02-08 06:26:00,
2013-02-08 01:31:00,40.1,40.1,29.85,SW,219,0.0,0.0,100,0.00,,,0.00,Weather View 32 v70,2013-02-08 06:31:00,
2013-02-08 01:36:00,40.1,40.1,29.85,SW,219,0.0,0.0,100,0.00,,,0.00,Weather View 32 v70,2013-02-08 06:36:00,
2013-02-08 01:41:00,40.2,40.2,29.84,SW,218,0.0,0.0,100,0.00,,,0.00,Weather View 32 v70,2013-02-08 06:41:00,
2013-02-08 01:46:00,40.2,40.2,29.84,SW,218,0.0,0.0,100,0.00,,,0.00,Weather View 32 v70,2013-02-08 06:46:00,
2013-02-08 01:51:00,40.3,40.3,29.84,SW,218,0.0,0.0,100,0.00,,,0.00,Weather View 32 v70,2013-02-08 06:51:00,
2013-02-08 01:56:00,40.3,40.3,29.84,SW,218,0.0,0.0,100,0.00,,,0.00,Weather View 32 v70,2013-02-08 06:56:00,
2013-02-08 02:01:00,40.3,40.3,29.84,SW,218,0.0,0.0,100,0.00,,,0.00,Weather View 32 v70,2013-02-08 07:01:00,
2013-02-08 02:06:00,40.3,40.3,29.84,SW,218,0.0,0.0,100,0.00,,,0.00,Weather View 32 v70,2013-02-08 07:06:00,
2013-02-08 02:11:00,40.4,40.4,29.84,SW,218,0.0,0.0,100,0.00,,,0.00,Weather View 32 v70,2013-02-08 07:11:00,
2013-02-08 02:16:00,40.4,40.4,29.84,SW,218,0.0,0.0,100,0.00,,,0.00,Weather View 32 v70,2013-02-08 07:16:00,
2013-02-08 02:21:00,40.4,40.4,29.84,SW,219,0.0,0.0,100,0.00,,,0.00,Weather View 32 v70,2013-02-08 07:21:00,
2013-02-08 02:26:00,40.3,40.3,29.84,SW,219,0.0,0.0,100,0.00,,,0.00,Weather View 32 v70,2013-02-08 07:26:00,
2013-02-08 02:31:00,40.3,40.3,29.84,SW,219,0.0,0.0,100,0.00,,,0.00,Weather View 32 v70,2013-02-08 07:31:00,
2013-02-08 02:36:00,40.3,40.3,29.84,SW,219,0.0,0.0,100,0.00,,,0.00,Weather View 32 v70,2013-02-08 07:36:00,
2013-02-08 02:41:00,40.3,40.3,29.84,SW,219,0.0,0.0,100,0.00,,,0.00,Weather View 32 v70,2013-02-08 07:41:00,
2013-02-08 02:46:00,40.2,40.2,29.84,SW,219,0.0,0.0,100,0.01,,,0.01,Weather View 32 v70,2013-02-08 07:46:00,
2013-02-08 02:51:00,40.2,40.2,29.84,SW,218,0.0,0.0,100,0.01,,,0.01,Weather View 32 v70,2013-02-08 07:51:00,
2013-02-08 02:56:00,40.1,40.1,29.84,SW,218,0.0,0.0,100,0.01,,,0.01,Weather View 32 v70,2013-02-08 07:56:00,
2013-02-08 03:01:00,40.0,40.0,29.83,SW,218,0.0,0.0,100,0.01,,,0.01,Weather View 32 v70,2013-02-08 08:01:00,
2013-02-08 03:06:00,40.0,40.0,29.84,SW,219,0.0,0.0,100,0.01,,,0.01,Weather View 32 v70,2013-02-08 08:06:00,
2013-02-08 03:11:00,40.0,40.0,29.84,NNE,33,0.0,0.0,100,0.01,,,0.01,Weather View 32 v70,2013-02-08 08:11:00,
2013-02-08 03:16:00,39.9,39.9,29.84,NNE,33,0.0,0.0,100,0.01,,,0.01,Weather View 32 v70,2013-02-08 08:16:00,
2013-02-08 03:21:00,39.8,39.8,29.84,NNE,33,0.0,0.0,100,0.01,,,0.01,Weather View 32 v70,2013-02-08 08:21:00,
2013-02-08 03:26:00,39.7,39.7,29.84,NNE,33,0.0,0.0,100,0.01,,,0.01,Weather View 32 v70,2013-02-08 08:26:00,
2013-02-08 03:31:00,39.7,39.7,29.84,NNE,33,0.0,0.0,100,0.01,,,0.01,Weather View 32 v70,2013-02-08 08:31:00,
2013-02-08 03:36:00,39.7,39.7,29.83,NNE,33,0.0,0.0,100,0.01,,,0.01,Weather View 32 v70,2013-02-08 08:36:00,
2013-02-08 03:41:00,39.7,39.7,29.84,NNE,33,0.0,0.0,100,0.01,,,0.01,Weather View 32 v70,2013-02-08 08:41:00,
2013-02-08 03:46:00,39.6,39.6,29.84,NNE,33,0.0,0.0,100,0.00,,,0.01,Weather View 32 v70,2013-02-08 08:46:00,
2013-02-08 03:51:00,39.6,39.6,29.83,NNE,33,0.0,0.0,100,0.00,,,0.01,Weather View 32 v70,2013-02-08 08:51:00,
2013-02-08 03:56:00,39.6,39.6,29.83,NE,34,0.0,0.0,100,0.00,,,0.01,Weather View 32 v70,2013-02-08 08:56:00,
2013-02-08 04:01:00,39.5,39.5,29.83,NE,34,0.0,0.0,100,0.00,,,0.01,Weather View 32 v70,2013-02-08 09:01:00,
2013-02-08 04:07:00,39.5,39.5,29.83,NE,34,0.0,0.0,100,0.00,,,0.01,Weather View 32 v70,2013-02-08 09:07:00,
2013-02-08 04:12:00,39.4,39.4,29.83,NE,34,0.0,0.0,100,0.00,,,0.01,Weather View 32 v70,2013-02-08 09:12:00,
2013-02-08 04:17:00,39.3,39.3,29.83,NE,34,0.0,0.0,100,0.00,,,0.01,Weather View 32 v70,2013-02-08 09:17:00,
2013-02-08 04:22:00,39.2,39.2,29.83,NE,34,0.0,0.0,100,0.01,,,0.02,Weather View 32 v70,2013-02-08 09:22:00,
2013-02-08 04:27:00,39.3,39.3,29.84,NE,35,0.0,0.0,100,0.01,,,0.02,Weather View 32 v70,2013-02-08 09:27:00,
2013-02-08 04:32:00,39.3,39.3,29.83,WNW,288,0.0,0.0,100,0.01,,,0.02,Weather View 32 v70,2013-02-08 09:32:00,
2013-02-08 04:38:00,39.5,39.5,29.82,WSW,238,0.0,0.0,100,0.01,,,0.02,Weather View 32 v70,2013-02-08 09:38:00,
2013-02-08 04:43:00,39.5,39.5,29.83,ENE,68,0.0,0.0,100,0.01,,,0.02,Weather View 32 v70,2013-02-08 09:43:00,
2013-02-08 04:48:00,39.3,39.3,29.83,SE,146,0.0,0.0,100,0.01,,,0.02,Weather View 32 v70,2013-02-08 09:48:00,
2013-02-08 04:54:00,39.3,39.3,29.83,SSE,148,0.0,0.0,100,0.01,,,0.02,Weather View 32 v70,2013-02-08 09:54:00,
2013-02-08 04:59:00,39.3,39.3,29.83,SSE,148,0.0,0.0,100,0.01,,,0.02,Weather View 32 v70,2013-02-08 09:59:00,
2013-02-08 05:04:00,39.4,39.4,29.83,SSE,147,0.0,0.0,100,0.01,,,0.02,Weather View 32 v70,2013-02-08 10:04:00,
2013-02-08 05:10:00,39.4,39.4,29.83,SSE,148,0.0,0.0,100,0.01,,,0.02,Weather View 32 v70,2013-02-08 10:10:00,
2013-02-08 05:15:00,39.4,39.4,29.83,SSE,148,0.0,0.0,100,0.01,,,0.02,Weather View 32 v70,2013-02-08 10:15:00,
2013-02-08 05:20:00,39.4,39.4,29.83,SSE,148,0.0,0.0,100,0.01,,,0.02,Weather View 32 v70,2013-02-08 10:20:00,
2013-02-08 05:25:00,39.4,39.4,29.83,SSE,148,0.0,0.0,100,0.00,,,0.02,Weather View 32 v70,2013-02-08 10:25:00,
2013-02-08 05:30:00,39.5,39.5,29.83,SSE,148,0.0,0.0,100,0.00,,,0.02,Weather View 32 v70,2013-02-08 10:30:00,
2013-02-08 05:35:00,39.4,39.4,29.83,SSE,148,0.0,0.0,100,0.00,,,0.02,Weather View 32 v70,2013-02-08 10:35:00,
2013-02-08 05:41:00,39.5,39.5,29.84,SSE,148,0.0,0.0,100,0.00,,,0.02,Weather View 32 v70,2013-02-08 10:41:00,
2013-02-08 05:46:00,39.5,39.5,29.84,SSE,148,0.0,0.0,100,0.00,,,0.02,Weather View 32 v70,2013-02-08 10:46:00,
2013-02-08 05:52:00,39.5,39.5,29.83,SSE,148,0.0,0.0,100,0.00,,,0.02,Weather View 32 v70,2013-02-08 10:52:00,
2013-02-08 05:57:00,39.5,39.5,29.83,SSE,147,0.0,0.0,100,0.00,,,0.02,Weather View 32 v70,2013-02-08 10:57:00,
2013-02-08 06:02:00,39.6,39.6,29.83,SSE,147,0.0,0.0,100,0.00,,,0.02,Weather View 32 v70,2013-02-08 11:02:00,
2013-02-08 06:07:00,39.6,39.6,29.83,SSE,147,0.0,0.0,100,0.00,,,0.02,Weather View 32 v70,2013-02-08 11:07:00,
2013-02-08 06:13:00,39.6,39.6,29.84,SSE,147,0.0,0.0,100,0.00,,,0.02,Weather View 32 v70,2013-02-08 11:13:00,
2013-02-08 06:18:00,39.6,39.6,29.84,SSE,147,0.0,0.0,100,0.00,,,0.02,Weather View 32 v70,2013-02-08 11:18:00,
2013-02-08 06:23:00,39.6,39.6,29.84,SSE,147,0.0,0.0,100,0.00,,,0.02,Weather View 32 v70,2013-02-08 11:23:00,
2013-02-08 06:29:00,39.6,39.6,29.84,SSE,147,0.0,0.0,100,0.00,,,0.02,Weather View 32 v70,2013-02-08 11:29:00,
2013-02-08 06:34:00,39.6,39.6,29.85,SSE,147,0.0,0.0,100,0.00,,,0.02,Weather View 32 v70,2013-02-08 11:34:00,
2013-02-08 06:39:00,39.7,39.7,29.85,SSE,147,0.0,0.0,100,0.00,,,0.02,Weather View 32 v70,2013-02-08 11:39:00,
2013-02-08 06:44:00,39.7,39.7,29.85,SSE,147,0.0,0.0,100,0.00,,,0.02,Weather View 32 v70,2013-02-08 11:44:00,
2013-02-08 06:50:00,39.8,39.8,29.85,SSE,147,0.0,0.0,100,0.00,,,0.02,Weather View 32 v70,2013-02-08 11:50:00,
2013-02-08 06:56:00,39.8,39.8,29.85,SSE,147,0.0,0.0,100,0.00,,,0.02,Weather View 32 v70,2013-02-08 11:56:00,
2013-02-08 07:01:00,39.9,39.9,29.85,SSE,147,0.0,0.0,100,0.00,,,0.02,Weather View 32 v70,2013-02-08 12:01:00,
2013-02-08 07:06:00,39.8,39.8,29.86,SSE,147,0.0,0.0,100,0.00,,,0.02,Weather View 32 v70,2013-02-08 12:06:00,
2013-02-08 07:11:00,39.9,39.9,29.85,SSE,147,0.0,0.0,100,0.00,,,0.02,Weather View 32 v70,2013-02-08 12:11:00,
2013-02-08 07:16:00,39.9,39.9,29.86,SSE,147,0.0,0.0,100,0.00,,,0.02,Weather View 32 v70,2013-02-08 12:16:00,
2013-02-08 07:21:00,39.9,39.9,29.85,SSE,147,0.0,0.0,100,0.00,,,0.02,Weather View 32 v70,2013-02-08 12:21:00,
2013-02-08 07:26:00,39.9,39.9,29.85,SSE,147,0.0,0.0,100,0.00,,,0.02,Weather View 32 v70,2013-02-08 12:26:00,
2013-02-08 07:31:00,39.9,39.9,29.85,SSE,147,0.0,0.0,100,0.00,,,0.02,Weather View 32 v70,2013-02-08 12:31:00,
2013-02-08 07:36:00,39.9,39.9,29.86,SE,146,0.0,0.0,100,0.00,,,0.02,Weather View 32 v70,2013-02-08 12:36:00,
2013-02-08 07:41:00,39.9,39.9,29.86,SE,146,0.0,0.0,100,0.00,,,0.02,Weather View 32 v70,2013-02-08 12:41:00,
2013-02-08 07:46:00,40.0,40.0,29.86,WSW,239,0.0,0.0,100,0.00,,,0.02,Weather View 32 v70,2013-02-08 12:46:00,
2013-02-08 07:51:00,40.0,40.0,29.87,NNE,27,0.0,0.0,100,0.00,,,0.02,Weather View 32 v70,2013-02-08 12:51:00,
2013-02-08 07:56:00,40.1,40.1,29.87,North,10,0.0,0.0,100,0.00,,,0.02,Weather View 32 v70,2013-02-08 12:56:00,
2013-02-08 08:01:00,40.1,40.1,29.87,North,10,0.0,0.0,100,0.00,,,0.02,Weather View 32 v70,2013-02-08 13:01:00,
2013-02-08 08:06:00,40.2,40.2,29.87,ESE,117,0.0,0.0,100,0.00,,,0.02,Weather View 32 v70,2013-02-08 13:06:00,
2013-02-08 08:11:00,40.3,40.3,29.87,ESE,117,0.0,0.0,100,0.00,,,0.02,Weather View 32 v70,2013-02-08 13:11:00,
2013-02-08 08:16:00,40.4,40.4,29.87,ESE,122,0.0,0.0,100,0.00,,,0.02,Weather View 32 v70,2013-02-08 13:16:00,
2013-02-08 08:21:00,40.5,40.5,29.87,ESE,122,0.0,0.0,100,0.00,,,0.02,Weather View 32 v70,2013-02-08 13:21:00,
2013-02-08 08:26:00,40.6,40.6,29.87,South,176,0.0,0.0,100,0.00,,,0.02,Weather View 32 v70,2013-02-08 13:26:00,
2013-02-08 08:31:00,40.7,40.7,29.87,South,177,0.0,0.0,100,0.00,,,0.02,Weather View 32 v70,2013-02-08 13:31:00,
2013-02-08 08:36:00,40.8,40.8,29.88,South,177,0.0,0.0,100,0.00,,,0.02,Weather View 32 v70,2013-02-08 13:36:00,
2013-02-08 08:41:00,40.9,40.9,29.88,NNE,26,0.0,0.0,100,0.00,,,0.02,Weather View 32 v70,2013-02-08 13:41:00,
2013-02-08 08:46:00,40.9,40.9,29.88,NNE,31,0.0,0.0,100,0.00,,,0.02,Weather View 32 v70,2013-02-08 13:46:00,
2013-02-08 08:51:00,40.8,40.8,29.88,NE,49,0.0,0.0,100,0.00,,,0.02,Weather View 32 v70,2013-02-08 13:51:00,
2013-02-08 08:56:00,40.9,40.9,29.88,NE,49,0.0,0.0,100,0.00,,,0.02,Weather View 32 v70,2013-02-08 13:56:00,
2013-02-08 09:01:00,41.0,41.0,29.88,NE,49,0.0,0.0,100,0.00,,,0.02,Weather View 32 v70,2013-02-08 14:01:00,
2013-02-08 09:06:00,41.0,41.0,29.88,NE,50,0.0,0.0,100,0.00,,,0.02,Weather View 32 v70,2013-02-08 14:06:00,
2013-02-08 09:11:00,41.0,41.0,29.89,NE,49,0.0,0.0,100,0.00,,,0.02,Weather View 32 v70,2013-02-08 14:11:00,
2013-02-08 09:16:00,41.1,41.1,29.89,NE,49,0.0,0.0,100,0.00,,,0.02,Weather View 32 v70,2013-02-08 14:16:00,
2013-02-08 09:21:00,41.0,41.0,29.89,West,281,0.0,0.0,100,0.00,,,0.02,Weather View 32 v70,2013-02-08 14:21:00,
2013-02-08 09:26:00,41.0,41.0,29.89,SW,230,0.0,0.0,100,0.00,,,0.02,Weather View 32 v70,2013-02-08 14:26:00,
2013-02-08 09:31:00,41.2,41.2,29.88,SSW,213,0.0,0.0,100,0.00,,,0.02,Weather View 32 v70,2013-02-08 14:31:00,
2013-02-08 09:36:00,41.5,41.5,29.89,SSW,213,0.0,0.0,100,0.00,,,0.02,Weather View 32 v70,2013-02-08 14:36:00,
2013-02-08 09:41:00,42.0,42.0,29.88,SW,214,0.0,0.0,100,0.01,,,0.03,Weather View 32 v70,2013-02-08 14:41:00,
2013-02-08 09:46:00,42.3,42.3,29.88,SW,215,0.0,0.0,100,0.01,,,0.03,Weather View 32 v70,2013-02-08 14:46:00,
2013-02-08 09:51:00,42.7,42.7,29.89,NE,48,0.0,0.0,100,0.01,,,0.03,Weather View 32 v70,2013-02-08 14:51:00,
2013-02-08 09:56:00,42.8,42.8,29.89,NNE,29,0.0,0.0,100,0.01,,,0.03,Weather View 32 v70,2013-02-08 14:56:00,
2013-02-08 10:01:00,43.0,43.0,29.89,NNE,31,0.0,0.0,100,0.01,,,0.03,Weather View 32 v70,2013-02-08 15:01:00,
2013-02-08 10:06:00,43.2,43.2,29.89,ENE,70,0.0,0.0,100,0.01,,,0.03,Weather View 32 v70,2013-02-08 15:06:00,
2013-02-08 10:11:00,43.2,43.2,29.89,NE,51,0.0,0.0,100,0.01,,,0.03,Weather View 32 v70,2013-02-08 15:11:00,
2013-02-08 10:16:00,43.2,43.2,29.89,NE,51,0.0,0.0,100,0.01,,,0.03,Weather View 32 v70,2013-02-08 15:16:00,
2013-02-08 10:21:00,43.4,43.4,29.89,NNE,31,0.0,0.0,100,0.01,,,0.03,Weather View 32 v70,2013-02-08 15:21:00,
2013-02-08 10:26:00,43.7,43.7,29.89,NNE,32,0.0,0.0,100,0.01,,,0.03,Weather View 32 v70,2013-02-08 15:26:00,
2013-02-08 10:31:00,43.8,43.8,29.89,NE,43,0.0,0.0,100,0.01,,,0.03,Weather View 32 v70,2013-02-08 15:31:00,
2013-02-08 10:36:00,43.9,43.9,29.89,NE,43,0.0,0.0,100,0.01,,,0.03,Weather View 32 v70,2013-02-08 15:36:00,
2013-02-08 10:41:00,43.9,43.9,29.90,NNW,335,0.0,0.0,100,0.00,,,0.03,Weather View 32 v70,2013-02-08 15:41:00,
2013-02-08 10:46:00,44.0,44.0,29.90,North,354,0.0,0.0,100,0.00,,,0.03,Weather View 32 v70,2013-02-08 15:46:00,
2013-02-08 10:51:00,44.2,44.2,29.90,North,350,0.0,0.0,100,0.00,,,0.03,Weather View 32 v70,2013-02-08 15:51:00,
2013-02-08 10:56:00,44.2,44.2,29.90,North,352,0.0,0.0,100,0.00,,,0.03,Weather View 32 v70,2013-02-08 15:56:00,
2013-02-08 11:01:00,44.3,44.3,29.90,NNW,330,0.0,0.0,100,0.00,,,0.03,Weather View 32 v70,2013-02-08 16:01:00,
2013-02-08 11:06:00,44.5,44.5,29.90,East,94,0.0,0.0,100,0.00,,,0.03,Weather View 32 v70,2013-02-08 16:06:00,
2013-02-08 11:11:00,44.5,44.5,29.90,SW,214,0.0,0.0,100,0.00,,,0.03,Weather View 32 v70,2013-02-08 16:11:00,
2013-02-08 11:16:00,44.7,44.7,29.90,NNE,19,0.0,1.0,100,0.00,,,0.03,Weather View 32 v70,2013-02-08 16:16:00,
2013-02-08 11:21:00,44.9,44.9,29.90,North,355,2.0,2.0,100,0.00,,,0.03,Weather View 32 v70,2013-02-08 16:21:00,
2013-02-08 11:26:00,44.9,44.9,29.91,North,353,2.0,7.0,100,0.00,,,0.03,Weather View 32 v70,2013-02-08 16:26:00,
2013-02-08 11:31:00,45.1,45.1,29.90,NNW,337,0.0,7.0,100,0.00,,,0.03,Weather View 32 v70,2013-02-08 16:31:00,
2013-02-08 11:36:00,45.2,45.2,29.91,NNW,344,0.0,7.0,100,0.00,,,0.03,Weather View 32 v70,2013-02-08 16:36:00,
2013-02-08 11:42:00,45.3,45.3,29.90,ENE,57,2.0,7.0,100,0.00,,,0.03,Weather View 32 v70,2013-02-08 16:42:00,
2013-02-08 11:47:00,45.4,45.4,29.90,NNW,346,0.0,7.0,100,0.00,,,0.03,Weather View 32 v70,2013-02-08 16:47:00,
2013-02-08 11:52:00,45.6,45.6,29.90,East,84,0.0,7.0,100,0.00,,,0.03,Weather View 32 v70,2013-02-08 16:52:00,
2013-02-08 11:57:00,45.4,45.4,29.90,NNW,331,2.0,7.0,100,0.00,,,0.03,Weather View 32 v70,2013-02-08 16:57:00,
2013-02-08 12:02:00,45.4,45.4,29.90,NNW,339,1.0,8.0,100,0.00,,,0.03,Weather View 32 v70,2013-02-08 17:02:00,
2013-02-08 12:07:00,45.3,45.3,29.90,North,352,0.0,8.0,100,0.00,,,0.03,Weather View 32 v70,2013-02-08 17:07:00,
2013-02-08 12:12:00,45.2,45.2,29.90,NE,53,0.0,8.0,100,0.00,,,0.03,Weather View 32 v70,2013-02-08 17:12:00,
2013-02-08 12:17:00,45.2,45.2,29.90,NNE,16,3.0,8.0,100,0.00,,,0.03,Weather View 32 v70,2013-02-08 17:17:00,
2013-02-08 12:22:00,45.2,45.2,29.90,NE,49,0.0,8.0,100,0.00,,,0.03,Weather View 32 v70,2013-02-08 17:22:00,
2013-02-08 12:27:00,45.2,45.2,29.90,East,93,1.0,8.0,100,0.00,,,0.03,Weather View 32 v70,2013-02-08 17:27:00,
2013-02-08 12:32:00,45.2,45.2,29.90,NE,46,1.0,8.0,100,0.00,,,0.03,Weather View 32 v70,2013-02-08 17:32:00,
2013-02-08 12:37:00,45.2,45.2,29.89,WNW,283,0.0,8.0,100,0.00,,,0.03,Weather View 32 v70,2013-02-08 17:37:00,
2013-02-08 12:42:00,45.2,45.2,29.89,South,186,1.0,8.0,100,0.00,,,0.03,Weather View 32 v70,2013-02-08 17:42:00,
2013-02-08 12:47:00,45.2,45.2,29.89,ESE,105,0.0,8.0,100,0.00,,,0.03,Weather View 32 v70,2013-02-08 17:47:00,
2013-02-08 12:52:00,45.3,45.3,29.89,NW,310,0.0,8.0,100,0.00,,,0.03,Weather View 32 v70,2013-02-08 17:52:00,
2013-02-08 12:57:00,45.2,44.9,29.89,WSW,256,2.0,7.0,99,0.00,,,0.03,Weather View 32 v70,2013-02-08 17:57:00,
2013-02-08 13:03:00,45.3,44.8,29.89,NW,322,8.0,8.0,98,0.00,,,0.03,Weather View 32 v70,2013-02-08 18:03:00,
2013-02-08 13:08:00,45.5,45.0,29.89,NE,55,3.0,10.0,98,0.00,,,0.03,Weather View 32 v70,2013-02-08 18:08:00,
2013-02-08 13:13:00,45.7,44.9,29.89,North,11,1.0,10.0,97,0.00,,,0.03,Weather View 32 v70,2013-02-08 18:13:00,
2013-02-08 13:18:00,45.8,45.0,29.88,ENE,60,1.0,10.0,97,0.00,,,0.03,Weather View 32 v70,2013-02-08 18:18:00,
2013-02-08 13:23:00,46.1,45.0,29.88,WNW,296,0.0,10.0,96,0.00,,,0.03,Weather View 32 v70,2013-02-08 18:23:00,
2013-02-08 13:28:00,46.1,44.7,29.88,WSW,245,1.0,10.0,95,0.00,,,0.03,Weather View 32 v70,2013-02-08 18:28:00,
2013-02-08 13:34:00,46.2,44.6,29.88,South,189,0.0,10.0,94,0.00,,,0.03,Weather View 32 v70,2013-02-08 18:34:00,
2013-02-08 13:39:00,46.4,44.8,29.88,SSW,205,0.0,10.0,94,0.00,,,0.03,Weather View 32 v70,2013-02-08 18:39:00,
2013-02-08 13:44:00,46.5,44.9,29.88,SSW,211,1.0,10.0,94,0.00,,,0.03,Weather View 32 v70,2013-02-08 18:44:00,
2013-02-08 13:49:00,46.3,44.4,29.88,SSW,204,4.0,10.0,93,0.00,,,0.03,Weather View 32 v70,2013-02-08 18:49:00,
2013-02-08 13:54:00,46.3,44.4,29.88,NNE,28,1.0,10.0,93,0.00,,,0.03,Weather View 32 v70,2013-02-08 18:54:00,
2013-02-08 13:59:00,46.2,44.3,29.88,North,8,0.0,10.0,93,0.00,,,0.03,Weather View 32 v70,2013-02-08 18:59:00,
2013-02-08 14:04:00,46.1,43.9,29.88,WSW,253,2.0,7.0,92,0.00,,,0.03,Weather View 32 v70,2013-02-08 19:04:00,
2013-02-08 14:09:00,45.9,43.7,29.87,ESE,119,2.0,7.0,92,0.00,,,0.03,Weather View 32 v70,2013-02-08 19:09:00,
2013-02-08 14:14:00,46.1,43.9,29.87,East,93,0.0,7.0,92,0.00,,,0.03,Weather View 32 v70,2013-02-08 19:14:00,
2013-02-08 14:19:00,46.2,44.0,29.88,ENE,77,0.0,8.0,92,0.00,,,0.03,Weather View 32 v70,2013-02-08 19:19:00,
2013-02-08 14:24:00,46.1,43.9,29.88,NNE,27,15.0,15.0,92,0.00,,,0.03,Weather View 32 v70,2013-02-08 19:24:00,
2013-02-08 14:29:00,46.0,43.5,29.88,NNW,336,2.0,19.0,91,0.00,,,0.03,Weather View 32 v70,2013-02-08 19:29:00,
2013-02-08 14:34:00,45.6,42.8,29.88,South,176,3.0,20.0,90,0.00,,,0.03,Weather View 32 v70,2013-02-08 19:34:00,
2013-02-08 14:39:00,45.5,42.7,29.89,West,269,6.0,20.0,90,0.00,,,0.03,Weather View 32 v70,2013-02-08 19:39:00,
2013-02-08 14:44:00,45.5,42.4,29.89,WSW,241,5.0,20.0,89,0.00,,,0.03,Weather View 32 v70,2013-02-08 19:44:00,
2013-02-08 14:49:00,45.7,42.3,29.89,East,80,2.0,20.0,88,0.00,,,0.03,Weather View 32 v70,2013-02-08 19:49:00,
2013-02-08 14:54:00,45.9,42.8,29.89,SSE,162,5.0,20.0,89,0.00,,,0.03,Weather View 32 v70,2013-02-08 19:54:00,
2013-02-08 14:59:00,46.2,41.6,29.88,SE,127,5.0,20.0,84,0.00,,,0.03,Weather View 32 v70,2013-02-08 19:59:00,
2013-02-08 15:04:00,46.6,42.0,29.89,NNE,15,3.0,20.0,84,0.00,,,0.03,Weather View 32 v70,2013-02-08 20:04:00,
2013-02-08 15:09:00,46.6,42.0,29.89,SSW,201,3.0,20.0,84,0.00,,,0.03,Weather View 32 v70,2013-02-08 20:09:00,
2013-02-08 15:14:00,46.9,42.3,29.89,NW,311,5.0,20.0,84,0.00,,,0.03,Weather View 32 v70,2013-02-08 20:14:00,
2013-02-08 15:20:00,47.0,41.5,29.89,WNW,293,1.0,20.0,81,0.00,,,0.03,Weather View 32 v70,2013-02-08 20:20:00,
2013-02-08 15:25:00,47.2,41.7,29.89,NE,34,5.0,20.0,81,0.00,,,0.03,Weather View 32 v70,2013-02-08 20:25:00,
2013-02-08 15:30:00,47.3,41.1,29.89,North,350,8.0,20.0,79,0.00,,,0.03,Weather View 32 v70,2013-02-08 20:30:00,
2013-02-08 15:35:00,47.3,40.4,29.89,East,85,2.0,19.0,77,0.00,,,0.03,Weather View 32 v70,2013-02-08 20:35:00,
2013-02-08 15:40:00,47.5,41.0,29.89,SW,219,9.0,14.0,78,0.00,,,0.03,Weather View 32 v70,2013-02-08 20:40:00,
2013-02-08 15:45:00,48.3,41.4,29.89,NE,43,1.0,14.0,77,0.00,,,0.03,Weather View 32 v70,2013-02-08 20:45:00,
2013-02-08 15:50:00,48.4,40.5,29.90,ESE,109,8.0,18.0,74,0.00,,,0.03,Weather View 32 v70,2013-02-08 20:50:00,
2013-02-08 15:55:00,48.5,40.2,29.89,WSW,242,2.0,18.0,73,0.00,,,0.03,Weather View 32 v70,2013-02-08 20:55:00,
2013-02-08 16:00:00,49.2,39.8,29.89,NW,322,2.0,18.0,70,0.00,,,0.03,Weather View 32 v70,2013-02-08 21:00:00,
2013-02-08 16:05:00,48.5,38.0,29.90,SW,229,3.0,18.0,67,0.00,,,0.03,Weather View 32 v70,2013-02-08 21:05:00,
2013-02-08 16:10:00,48.0,37.2,29.91,ENE,66,8.0,20.0,66,0.00,,,0.03,Weather View 32 v70,2013-02-08 21:10:00,
2013-02-08 16:15:00,48.3,37.1,29.91,NNE,33,1.0,20.0,65,0.00,,,0.03,Weather View 32 v70,2013-02-08 21:15:00,
2013-02-08 16:20:00,48.2,35.4,29.90,WSW,243,4.0,20.0,61,0.00,,,0.03,Weather View 32 v70,2013-02-08 21:20:00,
2013-02-08 16:25:00,47.9,35.5,29.90,South,179,5.0,20.0,62,0.00,,,0.03,Weather View 32 v70,2013-02-08 21:25:00,
2013-02-08 16:30:00,47.8,35.8,29.91,NE,55,4.0,20.0,63,0.00,,,0.03,Weather View 32 v70,2013-02-08 21:30:00,
2013-02-08 16:35:00,47.7,35.3,29.91,SE,124,2.0,20.0,62,0.00,,,0.03,Weather View 32 v70,2013-02-08 21:35:00,
2013-02-08 16:40:00,47.7,36.1,29.91,NE,35,4.0,20.0,64,0.00,,,0.03,Weather View 32 v70,2013-02-08 21:40:00,
2013-02-08 16:45:00,47.5,35.5,29.91,ENE,66,4.0,20.0,63,0.00,,,0.03,Weather View 32 v70,2013-02-08 21:45:00,
2013-02-08 16:50:00,46.8,34.8,29.91,East,82,3.0,20.0,63,0.00,,,0.03,Weather View 32 v70,2013-02-08 21:50:00,
2013-02-08 16:55:00,46.7,34.4,29.92,NE,54,5.0,20.0,62,0.00,,,0.03,Weather View 32 v70,2013-02-08 21:55:00,
2013-02-08 17:00:00,47.0,35.0,29.92,SSW,201,3.0,20.0,63,0.00,,,0.03,Weather View 32 v70,2013-02-08 22:00:00,
2013-02-08 17:05:00,46.4,34.1,29.91,WNW,303,4.0,23.0,62,0.00,,,0.03,Weather View 32 v70,2013-02-08 22:05:00,
2013-02-08 17:10:00,46.0,33.7,29.92,NE,43,3.0,23.0,62,0.00,,,0.03,Weather View 32 v70,2013-02-08 22:10:00,
2013-02-08 17:15:00,46.1,34.2,29.92,North,7,9.0,23.0,63,0.00,,,0.03,Weather View 32 v70,2013-02-08 22:15:00,
2013-02-08 17:20:00,45.8,34.7,29.93,NE,44,7.0,23.0,65,0.00,,,0.03,Weather View 32 v70,2013-02-08 22:20:00,
2013-02-08 17:25:00,45.4,34.3,29.92,NNW,343,5.0,23.0,65,0.00,,,0.03,Weather View 32 v70,2013-02-08 22:25:00,
2013-02-08 17:30:00,45.3,34.2,29.93,ENE,66,4.0,23.0,65,0.00,,,0.03,Weather View 32 v70,2013-02-08 22:30:00,
2013-02-08 17:35:00,45.2,34.1,29.93,West,274,3.0,23.0,65,0.00,,,0.03,Weather View 32 v70,2013-02-08 22:35:00,
2013-02-08 17:40:00,44.7,33.6,29.93,SE,132,20.0,23.0,65,0.00,,,0.03,Weather View 32 v70,2013-02-08 22:40:00,
2013-02-08 17:45:00,44.5,33.8,29.94,ENE,69,6.0,24.0,66,0.00,,,0.03,Weather View 32 v70,2013-02-08 22:45:00,
2013-02-08 17:50:00,44.3,33.3,29.94,ESE,112,1.0,24.0,65,0.00,,,0.03,Weather View 32 v70,2013-02-08 22:50:00,
2013-02-08 17:55:00,44.0,33.4,29.94,SSW,205,2.0,24.0,66,0.00,,,0.03,Weather View 32 v70,2013-02-08 22:55:00,
2013-02-08 18:00:00,43.6,33.0,29.94,North,359,10.0,24.0,66,0.00,,,0.03,Weather View 32 v70,2013-02-08 23:00:00,
2013-02-08 18:05:00,43.6,31.8,29.94,SSE,166,6.0,24.0,63,0.00,,,0.03,Weather View 32 v70,2013-02-08 23:05:00,
2013-02-08 18:10:00,43.4,31.6,29.94,NNE,15,2.0,24.0,63,0.00,,,0.03,Weather View 32 v70,2013-02-08 23:10:00,
2013-02-08 18:15:00,43.3,31.5,29.94,SSW,198,3.0,24.0,63,0.00,,,0.03,Weather View 32 v70,2013-02-08 23:15:00,
2013-02-08 18:20:00,43.0,31.6,29.94,SW,231,1.0,24.0,64,0.00,,,0.03,Weather View 32 v70,2013-02-08 23:20:00,
2013-02-08 18:25:00,42.6,31.3,29.94,SW,218,2.0,24.0,64,0.00,,,0.03,Weather View 32 v70,2013-02-08 23:25:00,
2013-02-08 18:30:00,42.3,31.0,29.95,SSW,209,2.0,24.0,64,0.00,,,0.03,Weather View 32 v70,2013-02-08 23:30:00,
2013-02-08 18:36:00,42.2,30.5,29.95,SW,235,0.0,24.0,63,0.00,,,0.03,Weather View 32 v70,2013-02-08 23:36:00,
2013-02-08 18:41:00,42.0,31.1,29.95,SSE,168,2.0,24.0,65,0.00,,,0.03,Weather View 32 v70,2013-02-08 23:41:00,
2013-02-08 18:46:00,41.6,31.4,29.96,ENE,63,3.0,20.0,67,0.00,,,0.03,Weather View 32 v70,2013-02-08 23:46:00,
2013-02-08 18:51:00,41.2,31.4,29.96,NNE,33,0.0,20.0,68,0.00,,,0.03,Weather View 32 v70,2013-02-08 23:51:00,
2013-02-08 18:56:00,40.6,30.9,29.96,SW,232,2.0,20.0,68,0.00,,,0.03,Weather View 32 v70,2013-02-08 23:56:00,
2013-02-08 19:01:00,40.3,30.9,29.96,NNW,345,2.0,20.0,69,0.00,,,0.03,Weather View 32 v70,2013-02-09 00:01:00,
2013-02-08 19:06:00,40.2,30.8,29.96,South,189,2.0,13.0,69,0.00,,,0.03,Weather View 32 v70,2013-02-09 00:06:00,
2013-02-08 19:11:00,40.1,31.1,29.96,East,83,3.0,14.0,70,0.00,,,0.03,Weather View 32 v70,2013-02-09 00:11:00,
2013-02-08 19:16:00,40.0,31.3,29.96,North,355,2.0,14.0,71,0.00,,,0.03,Weather View 32 v70,2013-02-09 00:16:00,
2013-02-08 19:21:00,39.7,31.1,29.96,ESE,108,1.0,14.0,71,0.00,,,0.03,Weather View 32 v70,2013-02-09 00:21:00,
2013-02-08 19:26:00,39.5,30.9,29.97,West,273,2.0,14.0,71,0.00,,,0.03,Weather View 32 v70,2013-02-09 00:26:00,
2013-02-08 19:31:00,39.5,30.9,29.97,North,10,2.0,14.0,71,0.00,,,0.03,Weather View 32 v70,2013-02-09 00:31:00,
2013-02-08 19:36:00,39.3,31.0,29.97,West,262,4.0,14.0,72,0.00,,,0.03,Weather View 32 v70,2013-02-09 00:36:00,
2013-02-08 19:41:00,39.1,31.2,29.97,NNE,31,5.0,14.0,73,0.00,,,0.03,Weather View 32 v70,2013-02-09 00:41:00,
2013-02-08 19:46:00,38.8,31.2,29.97,NNE,12,3.0,14.0,74,0.00,,,0.03,Weather View 32 v70,2013-02-09 00:46:00,
2013-02-08 19:51:00,38.6,31.0,29.97,WSW,238,1.0,14.0,74,0.00,,,0.03,Weather View 32 v70,2013-02-09 00:51:00,
2013-02-08 19:56:00,38.3,30.7,29.97,NNE,15,5.0,14.0,74,0.00,,,0.03,Weather View 32 v70,2013-02-09 00:56:00,
2013-02-08 20:01:00,38.1,30.9,29.97,NE,34,2.0,14.0,75,0.00,,,0.03,Weather View 32 v70,2013-02-09 01:01:00,
2013-02-08 20:06:00,38.0,30.8,29.98,NE,43,3.0,17.0,75,0.00,,,0.03,Weather View 32 v70,2013-02-09 01:06:00,
2013-02-08 20:11:00,38.0,30.8,29.98,NE,36,4.0,17.0,75,0.00,,,0.03,Weather View 32 v70,2013-02-09 01:11:00,
2013-02-08 20:16:00,37.7,30.8,29.98,SSW,197,5.0,17.0,76,0.00,,,0.03,Weather View 32 v70,2013-02-09 01:16:00,
2013-02-08 20:21:00,37.7,30.8,29.99,ENE,74,1.0,17.0,76,0.00,,,0.03,Weather View 32 v70,2013-02-09 01:21:00,
2013-02-08 20:26:00,37.5,30.6,29.99,NE,37,3.0,17.0,76,0.00,,,0.03,Weather View 32 v70,2013-02-09 01:26:00,
2013-02-08 20:31:00,37.6,30.7,29.99,NW,321,1.0,17.0,76,0.00,,,0.03,Weather View 32 v70,2013-02-09 01:31:00,
2013-02-08 20:36:00,37.3,30.4,29.99,SSW,211,3.0,17.0,76,0.00,,,0.03,Weather View 32 v70,2013-02-09 01:36:00,
2013-02-08 20:41:00,37.1,30.6,30.00,WNW,293,2.0,17.0,77,0.00,,,0.03,Weather View 32 v70,2013-02-09 01:41:00,
2013-02-08 20:46:00,36.8,30.3,30.00,ESE,117,1.0,17.0,77,0.00,,,0.03,Weather View 32 v70,2013-02-09 01:46:00,
2013-02-08 20:51:00,36.8,30.3,30.00,NE,38,7.0,17.0,77,0.00,,,0.03,Weather View 32 v70,2013-02-09 01:51:00,
2013-02-08 20:56:00,36.6,30.4,30.00,SW,217,2.0,17.0,78,0.00,,,0.03,Weather View 32 v70,2013-02-09 01:56:00,
2013-02-08 21:01:00,36.4,30.2,30.00,WNW,299,1.0,17.0,78,0.00,,,0.03,Weather View 32 v70,2013-02-09 02:01:00,
2013-02-08 21:06:00,36.4,30.5,30.01,NE,50,0.0,14.0,79,0.00,,,0.03,Weather View 32 v70,2013-02-09 02:06:00,
2013-02-08 21:11:00,36.1,30.5,30.01,SSW,206,0.0,14.0,80,0.00,,,0.03,Weather View 32 v70,2013-02-09 02:11:00,
2013-02-08 21:16:00,35.8,29.9,30.01,ENE,68,2.0,14.0,79,0.00,,,0.03,Weather View 32 v70,2013-02-09 02:16:00,
2013-02-08 21:22:00,35.8,30.2,30.02,ENE,69,1.0,14.0,80,0.00,,,0.03,Weather View 32 v70,2013-02-09 02:22:00,
2013-02-08 21:27:00,35.8,29.9,30.02,North,359,1.0,14.0,79,0.00,,,0.03,Weather View 32 v70,2013-02-09 02:27:00,
2013-02-08 21:32:00,35.5,29.9,30.02,NE,43,0.0,14.0,80,0.00,,,0.03,Weather View 32 v70,2013-02-09 02:32:00,
2013-02-08 21:37:00,35.3,29.7,30.02,North,351,1.0,14.0,80,0.00,,,0.03,Weather View 32 v70,2013-02-09 02:37:00,
2013-02-08 21:42:00,35.1,29.5,30.02,NE,47,5.0,14.0,80,0.00,,,0.03,Weather View 32 v70,2013-02-09 02:42:00,
2013-02-08 21:47:00,35.0,29.8,30.03,NE,39,3.0,13.0,81,0.00,,,0.03,Weather View 32 v70,2013-02-09 02:47:00,
2013-02-08 21:52:00,34.8,29.6,30.03,ENE,58,5.0,13.0,81,0.00,,,0.03,Weather View 32 v70,2013-02-09 02:52:00,
2013-02-08 21:57:00,34.9,29.7,30.03,East,91,0.0,13.0,81,0.00,,,0.03,Weather View 32 v70,2013-02-09 02:57:00,
2013-02-08 22:02:00,34.6,29.7,30.03,NNE,24,4.0,10.0,82,0.00,,,0.03,Weather View 32 v70,2013-02-09 03:02:00,
2013-02-08 22:07:00,34.4,29.5,30.04,NE,40,2.0,9.0,82,0.00,,,0.03,Weather View 32 v70,2013-02-09 03:07:00,
2013-02-08 22:12:00,34.2,29.6,30.04,NE,53,5.0,9.0,83,0.00,,,0.03,Weather View 32 v70,2013-02-09 03:12:00,
2013-02-08 22:17:00,34.0,29.4,30.05,NNE,22,9.0,11.0,83,0.00,,,0.03,Weather View 32 v70,2013-02-09 03:17:00,
2013-02-08 22:22:00,34.0,29.4,30.05,NE,44,5.0,11.0,83,0.00,,,0.03,Weather View 32 v70,2013-02-09 03:22:00,
2013-02-08 22:27:00,34.0,29.1,30.04,North,356,6.0,11.0,82,0.00,,,0.03,Weather View 32 v70,2013-02-09 03:27:00,
2013-02-08 22:32:00,34.0,29.1,30.04,East,79,3.0,11.0,82,0.00,,,0.03,Weather View 32 v70,2013-02-09 03:32:00,
2013-02-08 22:37:00,33.9,29.0,30.04,ENE,57,4.0,11.0,82,0.00,,,0.03,Weather View 32 v70,2013-02-09 03:37:00,
2013-02-08 22:42:00,33.8,28.9,30.05,WNW,294,1.0,11.0,82,0.00,,,0.03,Weather View 32 v70,2013-02-09 03:42:00,
2013-02-08 22:47:00,33.6,29.0,30.05,NE,34,5.0,11.0,83,0.00,,,0.03,Weather View 32 v70,2013-02-09 03:47:00,
2013-02-08 22:52:00,33.5,28.6,30.05,NE,45,5.0,11.0,82,0.00,,,0.03,Weather View 32 v70,2013-02-09 03:52:00,
2013-02-08 22:57:00,33.7,28.8,30.05,East,89,3.0,11.0,82,0.00,,,0.03,Weather View 32 v70,2013-02-09 03:57:00,
2013-02-08 23:02:00,33.7,28.8,30.05,WSW,239,0.0,11.0,82,0.00,,,0.03,Weather View 32 v70,2013-02-09 04:02:00,
2013-02-08 23:07:00,33.7,28.5,30.05,NE,42,2.0,11.0,81,0.00,,,0.03,Weather View 32 v70,2013-02-09 04:07:00,
2013-02-08 23:12:00,33.7,28.5,30.04,SW,220,0.0,11.0,81,0.00,,,0.03,Weather View 32 v70,2013-02-09 04:12:00,
2013-02-08 23:17:00,33.6,28.4,30.04,ENE,74,4.0,12.0,81,0.00,,,0.03,Weather View 32 v70,2013-02-09 04:17:00,
2013-02-08 23:22:00,33.7,28.5,30.04,North,352,2.0,12.0,81,0.00,,,0.03,Weather View 32 v70,2013-02-09 04:22:00,
2013-02-08 23:27:00,33.5,28.3,30.04,East,79,1.0,12.0,81,0.00,,,0.03,Weather View 32 v70,2013-02-09 04:27:00,
2013-02-08 23:32:00,33.4,28.2,30.03,South,171,2.0,12.0,81,0.00,,,0.03,Weather View 32 v70,2013-02-09 04:32:00,
2013-02-08 23:37:00,33.4,28.2,30.04,NE,45,4.0,12.0,81,0.00,,,0.03,Weather View 32 v70,2013-02-09 04:37:00,
2013-02-08 23:42:00,33.5,28.0,30.04,NNW,346,1.0,12.0,80,0.00,,,0.03,Weather View 32 v70,2013-02-09 04:42:00,
2013-02-08 23:47:00,33.4,27.9,30.03,NNE,31,5.0,12.0,80,0.00,,,0.03,Weather View 32 v70,2013-02-09 04:47:00,
2013-02-08 23:52:00,33.3,28.1,30.03,SW,215,0.0,12.0,81,0.00,,,0.03,Weather View 32 v70,2013-02-09 04:52:00,
2013-02-08 23:57:00,33.0,27.8,30.03,WSW,251,0.0,12.0,81,0.00,,,0.03,Weather View 32 v70,2013-02-09 04:57:00,